Minot, ND

9:10 PM CDT on April 30, 2017 (GMT -0500)
Minot International

Weather History for KMOT - October, 2013

Change the Weather History Date:

Saturday, October 5, 2013

  Actual Average Record
Temperature  
Mean Temperature 40 °F 49 °F  
Max Temperature 49 °F 61 °F 87 °F (2011)
Min Temperature 31 °F 38 °F 20 °F (1917)
Degree Days  
Heating Degree Days 25 16  
Month to date heating degree days 87 74  
Since 1 July heating degree days 278 394  
Cooling Degree Days 0 0  
Month to date cooling degree days 0 0  
Year to date cooling degree days 421 444  
Moisture  
Dew Point 28 °F    
Average Humidity 66    
Maximum Humidity 85    
Minimum Humidity 46    
Precipitation  
Precipitation 0.00 in 0.04 in 1.40 in (1998)
Month to date precipitation T 0.22  
Year to date precipitation 22.34 15.12  
Sea Level Pressure  
Sea Level Pressure 30.17 in    
Wind  
Wind Speed 13 mph (NNW)    
Max Wind Speed 24 mph    
Max Gust Speed 30 mph    
Visibility 10 miles    
Events      
T = Trace of Precipitation, MM = Missing Value Source: NWS Daily Summary

Daily Weather History Graph

Daily Weather History Graph

Search for Another Location

Airport or City:

Trip Planner

Search our weather history database for the weather conditions in past years. The results will help you decide how hot, cold, wet, or windy it might be!

Date:

Astronomy

Oct. 05, 2013 Rise Set
Actual Time 7:50 AM CDT 7:15 PM CDT
Civil Twilight 7:19 AM CDT 7:46 PM CDT
Nautical Twilight 6:43 AM CDT 8:22 PM CDT
Astronomical Twilight 6:06 AM CDT 8:59 PM CDT
Moon 8:38 AM CDT (10/5) 7:27 PM CDT (10/5)
Length of Visible Light 12h 27m
Length of Day
11h 24m
New Moon, 1% of the Moon is Illuminated
Oct 5
New Moon
Oct 11
First Quarter
Oct 18
Full
Oct 26
Last Quarter
Nov 3
New

Hourly Weather History & Observations

Time (CDT) Temp. Windchill Dew Point Humidity Pressure Visibility Wind Dir Wind Speed Gust Speed Precip Events Conditions
12:54 AM 37.0 °F 28.5 °F 28.9 °F 73% 30.27 in 10.0 mi North 13.8 mph - N/A   Clear
1:51 AM 35.6 °F 24.8 °F 28.4 °F 75% 30.20 in 10.0 mi North 19.6 mph 23.0 mph N/A   Mostly Cloudy
1:54 AM 36.0 °F 26.0 °F 28.9 °F 76% 30.25 in 10.0 mi North 17.3 mph 24.2 mph N/A   Mostly Cloudy
2:54 AM 36.0 °F 26.7 °F 28.9 °F 76% 30.24 in 10.0 mi North 15.0 mph - N/A   Mostly Cloudy
3:10 AM 35.6 °F 26.6 °F 28.4 °F 75% 30.18 in 10.0 mi North 13.8 mph - N/A   Scattered Clouds
3:37 AM 35.6 °F 25.5 °F 28.4 °F 75% 30.17 in 10.0 mi North 17.3 mph - N/A   Mostly Cloudy
3:54 AM 36.0 °F 26.3 °F 28.9 °F 76% 30.23 in 10.0 mi North 16.1 mph 23.0 mph N/A   Overcast
4:54 AM 35.1 °F 25.5 °F 28.0 °F 76% 30.22 in 10.0 mi NNW 15.0 mph - N/A   Mostly Cloudy
5:12 AM 35.6 °F 25.9 °F 28.4 °F 75% 30.16 in 10.0 mi NNW 16.1 mph 24.2 mph N/A   Scattered Clouds
5:54 AM 33.1 °F 23.0 °F 27.0 °F 78% 30.21 in 10.0 mi NNW 15.0 mph - N/A   Clear
6:54 AM 32.0 °F 21.6 °F 26.1 °F 79% 30.23 in 10.0 mi NNW 15.0 mph 21.9 mph N/A   Clear
7:25 AM 32.0 °F 20.1 °F 26.6 °F 80% 30.17 in 10.0 mi NNW 19.6 mph 25.3 mph N/A   Mostly Cloudy
7:33 AM 33.8 °F 22.2 °F 26.6 °F 75% 30.17 in 10.0 mi NNW 20.7 mph 26.5 mph N/A   Mostly Cloudy
7:54 AM 33.1 °F 21.9 °F 27.0 °F 78% 30.22 in 10.0 mi NNW 18.4 mph 27.6 mph N/A   Mostly Cloudy
8:54 AM 33.1 °F 22.2 °F 27.0 °F 78% 30.22 in 10.0 mi NNW 17.3 mph 24.2 mph N/A   Overcast
9:12 AM 33.8 °F 24.3 °F 26.6 °F 75% 30.15 in 10.0 mi NNW 13.8 mph 23.0 mph N/A   Overcast
9:54 AM 34.0 °F 23.4 °F 28.0 °F 79% 30.21 in 10.0 mi NNW 17.3 mph 25.3 mph N/A   Clear
10:54 AM 37.0 °F 26.4 °F 28.9 °F 73% 30.19 in 10.0 mi NNW 20.7 mph 29.9 mph N/A   Mostly Cloudy
11:06 AM 37.4 °F 26.4 °F 28.4 °F 70% 30.14 in 10.0 mi NNW 23.0 mph 28.8 mph N/A   Scattered Clouds
11:54 AM 39.9 °F 31.4 °F 28.9 °F 65% 30.18 in 10.0 mi North 16.1 mph 24.2 mph N/A   Clear
12:54 PM 44.1 °F 36.5 °F 30.0 °F 58% 30.17 in 10.0 mi North 17.3 mph 23.0 mph N/A   Partly Cloudy
1:54 PM 46.9 °F - 30.9 °F 54% 30.14 in 10.0 mi NNW 17.3 mph - N/A   Scattered Clouds
2:54 PM 46.9 °F - 30.9 °F 54% 30.12 in 10.0 mi NNW 13.8 mph 21.9 mph N/A   Clear
3:54 PM 48.9 °F - 30.9 °F 50% 30.10 in 10.0 mi NNW 16.1 mph - N/A   Clear
4:54 PM 48.0 °F - 28.9 °F 48% 30.08 in 10.0 mi NNW 13.8 mph 25.3 mph N/A   Clear
5:54 PM 48.0 °F - 28.0 °F 46% 30.09 in 10.0 mi NNW 15.0 mph - N/A   Clear
6:54 PM 44.1 °F 39.5 °F 28.0 °F 53% 30.10 in 10.0 mi North 8.1 mph - N/A   Clear
7:54 PM 35.1 °F - 28.0 °F 76% 30.13 in 10.0 mi Calm Calm - N/A   Clear
8:54 PM 37.0 °F - 28.9 °F 73% 30.12 in 10.0 mi Calm Calm - N/A   Clear
9:54 PM 36.0 °F 33.3 °F 27.0 °F 70% 30.12 in 10.0 mi WNW 3.5 mph - N/A   Clear
10:54 PM 33.1 °F 26.9 °F 28.9 °F 85% 30.09 in 10.0 mi SW 6.9 mph - N/A   Clear
11:54 PM 32.0 °F 24.2 °F 28.0 °F 85% 30.09 in 10.0 mi SW 9.2 mph - N/A   Clear